Location: Unspecified
(42.3650°N, 71.1030°W)
Time: 04:29:11
(UTC+00:00)

Explorer 11/Cluster Stage 4 - Pass Details

Date: 29 June 2024
Orbit: 465 x 1216 km, 28.8° (Epoch: 13 July)

Event Time Altitude Azimuth Distance (km) Brightness Sun altitude
Rises 21:29:00 0° 219° (SW) 3,505 10.3 29.7°
Reaches altitude 10° 21:32:15 10° 201° (SSW) 2,705 9.6 29.1°
Maximum altitude 21:36:42 19° 159° (SSE) 2,288 8.8 28.2°
Drops below altitude 10° 21:41:36 10° 118° (ESE) 3,020 9.1 27.4°
Sets 21:45:29 0° 103° (ESE) 4,064 9.7 26.6°
